Location: Arrien
(43.3167°N, 0.1500°W)
Time: 03:57:13
(UTC+00:00)

IRS-1C Rocket - Pass Details

Date: 15 October 2021
Orbit: 801 x 805 km, 98.9° (Epoch: 02 December)

Event Time Altitude Azimuth Distance (km) Brightness Sun altitude
Exits shadow 19:15:01 - 171° (S) 2,877 6.8 -22.1°
Reaches altitude 10° 19:16:18 10° 173° (S) 2,370 6.4 -22.4°
Maximum altitude 19:21:32 71° 257° (WSW) 849 4.3 -23.3°
Drops below altitude 10° 19:26:48 10° 342° (NNW) 2,389 6.9 -24.2°
Sets 19:29:10 0° 344° (NNW) 3,325 7.7 -24.7°
